Tracking 18942 objects as of 18-Jan-2018
HD Live streaming from Space Station
objects crossing your sky now

LEMUR 2 LYNSEY-SYMO

Track LEMUR 2 LYNSEY-SYMO now!
10-day predictions
LEMUR 2 LYNSEY-SYMO is classified as:


NORAD ID: 42779
Int'l Code: 2017-036Q
Perigee: 500.6 km
Apogee: 516.3 km
Inclination: 97.4 °
Period: 94.6 minutes
Semi major axis: 6879 km
RCS: Unknown
Launch date: June 23, 2017
Source: United States (US)
Launch site: SRIHARIKOTA (SRI)
aabbcc
Your satellite tracking list
Your tracking list is empty




NASA's NSSDC Master Catalog

Two Line Element Set (TLE):
1 42779U 17036Q   18017.43431394 +.00001605 +00000-0 +74318-4 0  9993
2 42779 097.4241 079.5618 0011415 238.4167 121.5955 15.21504499031582
Source of the keplerian elements: AFSPC